sat.trackr.live / text

‹ back to catalog

COSMOS 2414

NORAD 28521 · 2005-002A

PAYLOAD ACTIVE UNKNOWN

§ Identity

Operator
Country
CIS
Launch date
2005-01-20
Launch site
PLMSC
Launch vehicle
Mass (kg)
RCS (m²)
1.83

Purposes: nav

External: N2YO · Heavens-Above · Gunter

§ Orbital elements

Epoch: 2026-05-25T04:18:15.637824Z

Period
103.75 min
Inclination
82.9508°
Eccentricity
0.0041069
Mean motion
13.87924099 rev/d
Perigee alt
905.9 km
Apogee alt
966.0 km
Semi-major
7,314.1 km
B*
4.0566e-5
RAAN
61.0487°
Arg perigee
36.6171°
Mean anomaly
323.7787°
Rev number
8,062

§ Raw data

COSMOS 24141 28521U 05002A   26145.17934766  .00000064  00000+0  40566-4 0  99902 28521  82.9508  61.0487 0041069  36.6171 323.7787 13.87924099 80627

JSON: /api/v1/satellites/28521 · /tle

For live sub-satellite position, see the globe view (requires WebGL).

§ Visibility from observer

Set your observer location to see the next 7 days of passes ≥ 10°. The values pass through the URL so the page stays shareable.

No JS? Fill the form by hand. The geolocation button needs JavaScript.

§ Radio — SatNOGS DB

ModeDescriptionDownlinkUplink
CW Mode U Tracking Beacon 399.920 MHz
FSK Mode V 3FSK 149.970 MHz

2 transmitters · refreshed weekly from db.satnogs.org